Location: Gro�wechsungen
(51.4926°N, 10.6901°E)
Time: 08:46:25
(UTC+00:00)

SPOT 3 Rocket - Pass Details

Date: 02 February 2021
Orbit: 780 x 794 km, 98.7° (Epoch: 24 February)

Event Time Altitude Azimuth Distance (km) Brightness Sun altitude
Exits shadow 18:30:38 21° 25° (NNE) 1,718 5.1 -22.1°
Drops below altitude 10° 18:32:56 10° 4° (N) 2,354 6.0 -22.5°
Sets 18:35:34 0° 352° (N) 3,290 6.9 -22.9°
